Location: 22
(39.7117°N, 89.5929°W)
Time: 05:36:39
(UTC-05:00)

deb Explorer IX - Pass Details

Date: 26 April 2025
Orbit: 386 x 450 km, 38.6° (Epoch: 05 May)

Event Time Altitude Azimuth Distance (km) Brightness Sun altitude
Rises 21:36:47 0° 273° (W) 2,309 ? -19.2°
Reaches altitude 10° 21:39:17 10° 254° (WSW) 1,430 ? -19.6°
Enters shadow 21:41:07 18° 221° (SW) 1,030 ? -19.8°
